Leonardtown, MD

11:08 PM EST on February 21, 2018 (GMT -0500)
Leonardtown

Weather History for K2W6 - October, 2013

Change the Weather History Date:

Tuesday, October 1, 2013

  Actual Average (KNHK) Record (KNHK)
Temperature  
Mean Temperature 64 °F -  
Max Temperature 78 °F 74 °F 91 °F (1986)
Min Temperature 51 °F 60 °F 46 °F (1999)
Growing Degree Days 14 (Base 50)    
Moisture  
Dew Point 55 °F    
Average Humidity 72    
Maximum Humidity 94    
Minimum Humidity 44    
Precipitation  
Precipitation 0.00 in - - ()
Sea Level Pressure  
Sea Level Pressure 30.05 in    
Wind  
Wind Speed 2 mph (WSW)    
Max Wind Speed 10 mph    
Max Gust Speed -    
Visibility 10 miles    
Events      
Averages and records for this station are not official NWS values.
T = Trace of Precipitation, MM = Missing Value Source: NWS Daily Summary

Daily Weather History Graph

Daily Weather History Graph

Search for Another Location

Airport or City:

Trip Planner

Search our weather history database for the weather conditions in past years. The results will help you decide how hot, cold, wet, or windy it might be!

Date:

Astronomy

Oct. 01, 2013 Rise Set
Actual Time 7:02 AM EDT 6:48 PM EDT
Civil Twilight 6:35 AM EDT 7:15 PM EDT
Nautical Twilight 6:05 AM EDT 7:45 PM EDT
Astronomical Twilight 5:34 AM EDT 8:16 PM EDT
Moon 3:36 AM EDT (10/1) 4:49 PM EDT (10/1)
Length of Visible Light 12h 39m
Length of Day
11h 46m
Waning Crescent, 12% of the Moon is Illuminated
Oct 1
Waning Crescent
Oct 4
New
Oct 11
First Quarter
Oct 18
Full
Oct 26
Last Quarter

Hourly Weather History & Observations

Time (EDT) Temp. Dew Point Humidity Pressure Visibility Wind Dir Wind Speed Gust Speed Precip Events Conditions
12:16 AM 55.4 °F 51.8 °F 88% 30.05 in 10.0 mi Calm Calm - N/A   Clear
12:36 AM 53.6 °F 50.0 °F 88% 30.05 in 10.0 mi Calm Calm - N/A   Clear
12:56 AM 53.6 °F 50.0 °F 88% 30.05 in 10.0 mi Calm Calm - N/A   Clear
1:16 AM 53.6 °F 50.0 °F 88% 30.05 in 10.0 mi Calm Calm - N/A   Clear
1:36 AM 53.6 °F 51.8 °F 94% 30.06 in 10.0 mi Calm Calm - N/A   Clear
1:56 AM 53.6 °F 51.8 °F 94% 30.06 in 10.0 mi Calm Calm - N/A   Clear
2:16 AM 55.4 °F 51.8 °F 88% 30.06 in 10.0 mi Calm Calm - N/A   Clear
2:36 AM 55.4 °F 51.8 °F 88% 30.05 in 10.0 mi Calm Calm - N/A   Clear
2:57 AM 53.6 °F 51.8 °F 94% 30.05 in 10.0 mi WSW 3.5 mph - N/A   Scattered Clouds
3:17 AM 53.6 °F 50.0 °F 88% 30.05 in 10.0 mi Calm Calm - N/A   Clear
3:37 AM 53.6 °F 50.0 °F 88% 30.06 in 10.0 mi Calm Calm - N/A   Clear
3:57 AM 53.6 °F 50.0 °F 88% 30.06 in 10.0 mi Calm Calm - N/A   Scattered Clouds
4:17 AM 53.6 °F 50.0 °F 88% 30.06 in 10.0 mi Calm Calm - N/A   Mostly Cloudy
4:37 AM 53.6 °F 50.0 °F 88% 30.06 in 10.0 mi Calm Calm - N/A   Scattered Clouds
4:57 AM 53.6 °F 50.0 °F 88% 30.05 in 10.0 mi Calm Calm - N/A   Clear
5:17 AM 53.6 °F 50.0 °F 88% 30.06 in 10.0 mi Calm Calm - N/A   Clear
5:37 AM 53.6 °F 50.0 °F 88% 30.06 in 10.0 mi Calm Calm - N/A   Clear
5:57 AM 51.8 °F 50.0 °F 94% 30.06 in 10.0 mi Calm Calm - N/A   Clear
6:17 AM 53.6 °F 51.8 °F 94% 30.07 in 10.0 mi Calm Calm - N/A   Clear
6:37 AM 51.8 °F 50.0 °F 94% 30.07 in 10.0 mi West 3.5 mph - N/A   Clear
6:57 AM 53.6 °F 50.0 °F 88% 30.08 in 10.0 mi West 3.5 mph - N/A   Scattered Clouds
7:17 AM 53.6 °F 50.0 °F 88% 30.08 in 10.0 mi Calm Calm - N/A   Scattered Clouds
7:37 AM 55.4 °F 51.8 °F 88% 30.08 in 10.0 mi Calm Calm - N/A   Mostly Cloudy
7:57 AM 59.0 °F 53.6 °F 82% 30.08 in 10.0 mi WSW 3.5 mph - N/A   Scattered Clouds
8:17 AM 60.8 °F 55.4 °F 82% 30.09 in 10.0 mi SW 3.5 mph - N/A   Mostly Cloudy
8:37 AM 64.4 °F 55.4 °F 73% 30.08 in 10.0 mi SW 4.6 mph - N/A   Overcast
8:57 AM 64.4 °F 55.4 °F 73% 30.09 in 10.0 mi West 5.8 mph - N/A   Overcast
9:17 AM 64.4 °F 55.4 °F 73% 30.09 in 10.0 mi WSW 4.6 mph - N/A   Overcast
9:37 AM 64.4 °F 55.4 °F 73% 30.09 in 10.0 mi WSW 5.8 mph - N/A   Overcast
9:57 AM 66.2 °F 55.4 °F 68% 30.09 in 10.0 mi SW 4.6 mph - N/A   Overcast
10:17 AM 68.0 °F 55.4 °F 64% 30.10 in 10.0 mi West 4.6 mph - N/A   Mostly Cloudy
10:37 AM 69.8 °F 55.4 °F 60% 30.09 in 10.0 mi West 6.9 mph - N/A   Scattered Clouds
10:57 AM 71.6 °F 55.4 °F 57% 30.09 in 10.0 mi West 4.6 mph - N/A   Mostly Cloudy
11:18 AM 71.6 °F 55.4 °F 57% 30.09 in 10.0 mi WNW 5.8 mph - N/A   Overcast
11:38 AM 71.6 °F 57.2 °F 60% 30.08 in 10.0 mi West 4.6 mph - N/A   Overcast
11:58 AM 73.4 °F 55.4 °F 53% 30.08 in 10.0 mi WNW 3.5 mph - N/A   Scattered Clouds
12:18 PM 73.4 °F 55.4 °F 53% 30.07 in 10.0 mi WNW 3.5 mph - N/A   Mostly Cloudy
12:38 PM 73.4 °F 55.4 °F 53% 30.07 in 10.0 mi West 4.6 mph - N/A   Mostly Cloudy
12:58 PM 75.2 °F 55.4 °F 50% 30.06 in 10.0 mi WSW 4.6 mph - N/A   Scattered Clouds
1:18 PM 77.0 °F 55.4 °F 47% 30.05 in 10.0 mi WNW 4.6 mph - N/A   Clear
1:38 PM 78.8 °F 57.2 °F 47% 30.04 in 10.0 mi SW 5.8 mph - N/A   Mostly Cloudy
1:58 PM 77.0 °F 55.4 °F 47% 30.04 in 10.0 mi West 5.8 mph - N/A   Mostly Cloudy
2:18 PM 78.8 °F 55.4 °F 44% 30.03 in 10.0 mi West 6.9 mph - N/A   Scattered Clouds
2:31 PM 78.8 °F 55.4 °F 44% 30.03 in 10.0 mi SW 3.5 mph - N/A   Scattered Clouds
2:54 PM 77.0 °F 57.2 °F 50% 30.02 in 10.0 mi SSW 4.6 mph - N/A   Scattered Clouds
3:18 PM 78.8 °F 57.2 °F 47% 30.02 in 10.0 mi WSW 6.9 mph - N/A   Clear
3:38 PM 78.8 °F 55.4 °F 44% 30.01 in 10.0 mi South 4.6 mph - N/A   Mostly Cloudy
3:58 PM 78.8 °F 59.0 °F 51% 30.01 in 10.0 mi South 4.6 mph - N/A   Overcast
4:18 PM 78.8 °F 55.4 °F 44% 30.01 in 10.0 mi South 4.6 mph - N/A   Overcast
4:38 PM 78.8 °F 55.4 °F 44% 30.00 in 10.0 mi SSW 10.4 mph - N/A   Overcast
4:58 PM 78.8 °F 55.4 °F 44% 30.01 in 10.0 mi WSW 5.8 mph - N/A   Overcast
5:18 PM 77.0 °F 55.4 °F 47% 30.00 in 10.0 mi SSW 5.8 mph - N/A   Scattered Clouds
5:38 PM 77.0 °F 55.4 °F 47% 30.01 in 10.0 mi SW 3.5 mph - N/A   Clear
5:58 PM 77.0 °F 55.4 °F 47% 30.01 in 10.0 mi SW 5.8 mph - N/A   Clear
6:18 PM 75.2 °F 55.4 °F 50% 30.01 in 10.0 mi SSW 3.5 mph - N/A   Clear
6:38 PM 73.4 °F 57.2 °F 57% 30.01 in 10.0 mi Calm Calm - N/A   Clear
6:58 PM 69.8 °F 59.0 °F 68% 30.01 in 10.0 mi Calm Calm - N/A   Clear
7:18 PM 68.0 °F 59.0 °F 73% 30.01 in 10.0 mi Calm Calm - N/A   Clear
7:38 PM 68.0 °F 59.0 °F 73% 30.02 in 10.0 mi Calm Calm - N/A   Clear
7:59 PM 68.0 °F 59.0 °F 73% 30.02 in 10.0 mi Calm Calm - N/A   Clear
8:19 PM 66.2 °F 59.0 °F 78% 30.03 in 10.0 mi Calm Calm - N/A   Clear
8:39 PM 64.4 °F 57.2 °F 77% 30.03 in 10.0 mi Calm Calm - N/A   Clear
8:59 PM 64.4 °F 57.2 °F 77% 30.03 in 10.0 mi Calm Calm - N/A   Clear
9:19 PM 64.4 °F 59.0 °F 83% 30.03 in 10.0 mi Calm Calm - N/A   Clear
9:39 PM 64.4 °F 59.0 °F 83% 30.03 in 10.0 mi Calm Calm - N/A   Clear
9:59 PM 64.4 °F 59.0 °F 83% 30.04 in 10.0 mi Calm Calm - N/A   Clear
10:39 PM 64.4 °F 59.0 °F 83% 30.04 in 10.0 mi Calm Calm - N/A   Clear
10:59 PM 62.6 °F 59.0 °F 88% 30.04 in 10.0 mi Calm Calm - N/A   Clear
11:19 PM 64.4 °F 59.0 °F 83% 30.04 in 10.0 mi Calm Calm - N/A   Clear
11:39 PM 64.4 °F 59.0 °F 83% 30.04 in 10.0 mi Calm Calm - N/A   Clear
11:59 PM 62.6 °F 59.0 °F 88% 30.05 in 10.0 mi Calm Calm - N/A   Clear